Location: Cactus School
(34.5700°N, 118.0931°W)
Time: 22:35:50
(UTC-07:00)

Vanguard 2 - Pass Details

Date: 30 April 2024
Orbit: 553 x 2914 km, 32.9° (Epoch: 18 May)

Event Time Altitude Azimuth Distance (km) Brightness Sun altitude
Rises 20:15:04 0° 178° (S) 3,450 10.6 -8.1°
Reaches altitude 10° 20:20:25 10° 138° (SE) 3,055 10.0 -9.1°
Maximum altitude 20:21:36 10° 129° (SE) 3,150 10.0 -9.3°
Enters shadow 20:21:57 10° 127° (SE) 3,188 10.0 -9.4°
